�������l�o���
Date,Time,MP-1(��Sv/h),MP-2(��Sv/h),MP-3(��Sv/h),MP-4(��Sv/h),MP-5(��Sv/h),MP-6(��Sv/h),MP-7(��Sv/h),MP-8(��Sv/h),����,����(m/s),���J
2020/05/10,00:00,0.715,1.025,0.677,1.251,0.891,0.407,0.702,0.662,��,6.9,�L
2020/05/10,00:10,0.712,1.025,0.675,1.250,0.894,0.407,0.701,0.661,��,6.8,�L
2020/05/10,00:20,0.715,1.024,0.676,1.251,0.892,0.407,0.701,0.662,��,6.1,�L
2020/05/10,00:30,0.713,1.025,0.675,1.251,0.891,0.408,0.701,0.664,��,5.4,�L
2020/05/10,00:40,0.713,1.024,0.675,1.251,0.892,0.407,0.702,0.663,��쐼,4.4,�L
2020/05/10,00:50,0.712,1.025,0.674,1.252,0.894,0.407,0.702,0.662,��,5.2,�L
2020/05/10,01:00,0.710,1.024,0.675,1.248,0.892,0.407,0.703,0.662,��쐼,5.3,�L
2020/05/10,01:10,0.711,1.023,0.673,1.248,0.891,0.405,0.704,0.662,��,5.3,�L
2020/05/10,01:20,0.710,1.021,0.673,1.247,0.891,0.406,0.703,0.663,��쐼,5.1,��
2020/05/10,01:30,0.709,1.021,0.672,1.248,0.889,0.405,0.702,0.662,��,4.6,�L
2020/05/10,01:40,0.709,1.018,0.671,1.247,0.889,0.406,0.701,0.663,��,4.5,�L
2020/05/10,01:50,0.708,1.021,0.671,1.248,0.892,0.406,0.703,0.663,��,4.6,�L
2020/05/10,02:00,0.709,1.020,0.672,1.246,0.891,0.404,0.702,0.662,��,4.2,��
2020/05/10,02:10,0.708,1.017,0.670,1.244,0.889,0.403,0.703,0.661,��,4.5,��
2020/05/10,02:20,0.708,1.020,0.671,1.244,0.888,0.403,0.703,0.664,��,4.9,�L
2020/05/10,02:30,0.708,1.018,0.669,1.246,0.887,0.403,0.704,0.660,��,5.1,�L
2020/05/10,02:40,0.707,1.018,0.669,1.245,0.890,0.403,0.703,0.661,��,5.4,�L
2020/05/10,02:50,0.706,1.019,0.669,1.245,0.888,0.403,0.703,0.662,��,5.0,�L
2020/05/10,03:00,0.706,1.019,0.669,1.246,0.887,0.404,0.702,0.662,��,4.3,��
2020/05/10,03:10,0.708,1.016,0.668,1.246,0.887,0.404,0.704,0.662,��,5.4,��
2020/05/10,03:20,0.707,1.018,0.670,1.246,0.887,0.402,0.704,0.662,��,4.9,��
2020/05/10,03:30,0.707,1.017,0.669,1.248,0.887,0.403,0.704,0.663,��,4.9,��
2020/05/10,03:40,0.706,1.015,0.669,1.246,0.885,0.402,0.702,0.662,��,5.0,��
2020/05/10,03:50,0.705,1.016,0.670,1.245,0.889,0.403,0.702,0.663,��,5.2,�L
2020/05/10,04:00,0.706,1.018,0.669,1.246,0.890,0.402,0.704,0.663,��,5.2,��
2020/05/10,04:10,0.706,1.016,0.668,1.244,0.888,0.402,0.703,0.662,��,4.9,��
2020/05/10,04:20,0.706,1.015,0.670,1.245,0.890,0.403,0.703,0.661,��,5.5,��
2020/05/10,04:30,0.706,1.020,0.669,1.248,0.888,0.402,0.704,0.661,��,5.8,��
2020/05/10,04:40,0.707,1.018,0.668,1.245,0.888,0.403,0.701,0.663,��,5.9,��
2020/05/10,04:50,0.707,1.017,0.670,1.246,0.888,0.402,0.704,0.663,��,4.7,��
2020/05/10,05:00,0.706,1.019,0.671,1.246,0.889,0.403,0.702,0.662,��,4.9,��
2020/05/10,05:10,0.707,1.015,0.670,1.245,0.889,0.404,0.702,0.664,��,4.6,��
2020/05/10,05:20,0.705,1.017,0.671,1.246,0.886,0.403,0.702,0.663,��,5.5,��
2020/05/10,05:30,0.707,1.016,0.671,1.246,0.889,0.403,0.703,0.663,��,6.4,�L
2020/05/10,05:40,0.708,1.018,0.671,1.246,0.889,0.404,0.701,0.662,��,5.5,�L
2020/05/10,05:50,0.708,1.017,0.671,1.246,0.890,0.403,0.702,0.662,��,6.2,�L
2020/05/10,06:00,0.708,1.015,0.671,1.248,0.889,0.404,0.702,0.663,��,4.9,�L
2020/05/10,06:10,0.707,1.014,0.672,1.248,0.886,0.403,0.706,0.661,��,5.5,�L
2020/05/10,06:20,0.705,1.015,0.672,1.247,0.886,0.404,0.701,0.662,��,5.0,��
2020/05/10,06:30,0.707,1.017,0.671,1.245,0.886,0.403,0.703,0.663,��,4.4,�L
2020/05/10,06:40,0.706,1.015,0.670,1.246,0.888,0.404,0.701,0.662,��,5.0,�L
2020/05/10,06:50,0.707,1.013,0.671,1.247,0.885,0.405,0.698,0.662,��,6.2,�L
2020/05/10,07:00,0.705,1.015,0.670,1.248,0.884,0.404,0.700,0.662,��,6.2,�L
2020/05/10,07:10,0.705,1.012,0.671,1.245,0.884,0.405,0.701,0.661,��,5.8,�L
2020/05/10,07:20,0.704,1.013,0.670,1.243,0.885,0.404,0.702,0.661,��,6.5,�L
2020/05/10,07:30,0.706,1.013,0.670,1.243,0.884,0.404,0.700,0.662,��,6.8,�L
2020/05/10,07:40,0.705,1.012,0.670,1.244,0.885,0.403,0.701,0.662,��,5.2,�L
2020/05/10,07:50,0.707,1.014,0.670,1.245,0.884,0.404,0.701,0.661,��,6.0,�L
2020/05/10,08:00,0.707,1.014,0.670,1.246,0.886,0.402,0.701,0.661,��,5.7,�L
2020/05/10,08:10,0.705,1.011,0.669,1.243,0.884,0.403,0.702,0.660,��,4.2,�L
2020/05/10,08:20,0.706,1.013,0.669,1.243,0.885,0.402,0.702,0.661,��,5.0,��
2020/05/10,08:30,0.707,1.014,0.669,1.244,0.888,0.403,0.701,0.660,��쐼,4.3,�L
2020/05/10,08:40,0.707,1.014,0.671,1.246,0.888,0.402,0.699,0.661,��쐼,3.6,�L
2020/05/10,08:50,0.708,1.010,0.672,1.245,0.886,0.403,0.701,0.659,��,4.2,�L
2020/05/10,09:00,0.706,1.007,0.671,1.246,0.882,0.403,0.701,0.661,��,4.9,�L
2020/05/10,09:10,0.704,1.010,0.670,1.246,0.881,0.406,0.700,0.659,��,4.6,�L
2020/05/10,09:20,0.704,1.006,0.668,1.244,0.881,0.406,0.700,0.659,��,4.6,�L
2020/05/10,09:30,0.704,1.006,0.670,1.243,0.882,0.405,0.700,0.660,��,5.2,�L
2020/05/10,09:40,0.703,1.003,0.670,1.241,0.880,0.405,0.700,0.659,��,4.8,�L
2020/05/10,09:50,0.705,1.005,0.669,1.240,0.878,0.408,0.699,0.659,��,6.0,�L
2020/05/10,10:00,0.705,1.002,0.670,1.240,0.879,0.407,0.699,0.657,��,6.3,�L
2020/05/10,10:10,0.701,1.002,0.669,1.239,0.878,0.407,0.698,0.656,��쓌,7.6,�L
2020/05/10,10:20,0.703,0.999,0.667,1.234,0.875,0.405,0.698,0.658,��쓌,7.8,�L
2020/05/10,10:30,0.698,0.996,0.667,1.233,0.874,0.404,0.697,0.658,��,7.4,�L
2020/05/10,10:40,0.701,0.995,0.666,1.231,0.873,0.405,0.698,0.655,��,7.1,�L
2020/05/10,10:50,0.699,0.994,0.667,1.230,0.872,0.405,0.697,0.654,��,6.7,�L
2020/05/10,11:00,0.699,0.993,0.664,1.229,0.871,0.404,0.696,0.656,��쓌,6.8,�L
2020/05/10,11:10,0.700,0.995,0.666,1.228,0.871,0.406,0.696,0.656,��,5.9,�L
2020/05/10,11:20,0.700,0.993,0.663,1.225,0.871,0.404,0.697,0.654,��,6.5,�L
2020/05/10,11:30,0.698,0.993,0.665,1.229,0.869,0.404,0.694,0.654,��,4.9,��
2020/05/10,11:40,0.698,0.994,0.662,1.224,0.870,0.403,0.696,0.655,��,4.9,�L
2020/05/10,11:50,0.697,0.993,0.663,1.222,0.868,0.403,0.696,0.653,��,4.3,�L
2020/05/10,12:00,0.697,0.993,0.663,1.225,0.868,0.402,0.695,0.653,��,5.9,�L
2020/05/10,12:10,0.697,0.994,0.662,1.221,0.868,0.400,0.695,0.655,��,5.4,��
2020/05/10,12:20,0.697,0.994,0.663,1.223,0.867,0.401,0.694,0.656,��,6.1,��
2020/05/10,12:30,0.696,0.992,0.661,1.227,0.867,0.401,0.695,0.655,��,6.4,��
2020/05/10,12:40,0.696,0.994,0.662,1.221,0.867,0.400,0.696,0.654,��,4.7,��
2020/05/10,12:50,0.696,0.993,0.661,1.223,0.867,0.400,0.696,0.654,��,5.1,��
2020/05/10,13:00,0.696,0.990,0.660,1.221,0.868,0.400,0.695,0.655,��,5.1,��
2020/05/10,13:10,0.692,0.992,0.661,1.222,0.868,0.398,0.697,0.654,��,5.4,��
2020/05/10,13:20,0.694,0.992,0.659,1.219,0.868,0.398,0.695,0.654,��,4.5,��
2020/05/10,13:30,0.692,0.991,0.660,1.221,0.869,0.399,0.697,0.655,��쓌,5.3,��
2020/05/10,13:40,0.692,0.991,0.661,1.222,0.867,0.399,0.695,0.653,��쓌,5.6,��
2020/05/10,13:50,0.693,0.995,0.659,1.224,0.870,0.399,0.696,0.653,��,5.6,��
2020/05/10,14:00,0.694,0.996,0.659,1.219,0.869,0.401,0.696,0.654,��쓌,5.7,��
2020/05/10,14:10,0.695,0.997,0.663,1.220,0.871,0.400,0.697,0.652,��쓌,5.7,��
2020/05/10,14:20,0.695,0.994,0.660,1.220,0.871,0.400,0.697,0.656,��,7.1,��
2020/05/10,14:30,0.696,0.995,0.661,1.220,0.872,0.399,0.697,0.653,��,9.3,��
2020/05/10,14:40,0.697,0.998,0.664,1.225,0.872,0.399,0.697,0.654,��,9.9,��
2020/05/10,14:50,0.699,0.998,0.662,1.220,0.874,0.401,0.698,0.655,��,8.9,��
2020/05/10,15:00,0.697,0.999,0.663,1.222,0.873,0.401,0.699,0.655,��,8.4,��
2020/05/10,15:10,0.697,0.999,0.662,1.225,0.873,0.401,0.699,0.656,��,6.4,��
2020/05/10,15:20,0.697,0.999,0.663,1.221,0.874,0.401,0.698,0.656,��,5.1,��
2020/05/10,15:30,0.697,1.001,0.663,1.225,0.873,0.402,0.698,0.654,��,6.3,��
2020/05/10,15:40,0.697,1.000,0.664,1.223,0.873,0.401,0.698,0.655,��,6.2,��
2020/05/10,15:50,0.700,0.998,0.663,1.220,0.874,0.400,0.699,0.655,��,6.5,��
2020/05/10,16:00,0.699,1.001,0.664,1.226,0.876,0.401,0.699,0.655,��,7.3,��
2020/05/10,16:10,0.699,1.001,0.664,1.226,0.875,0.401,0.698,0.657,��,7.3,��
2020/05/10,16:20,0.699,1.001,0.665,1.224,0.874,0.401,0.699,0.655,��,6.5,��
2020/05/10,16:30,0.698,1.002,0.665,1.223,0.873,0.402,0.698,0.656,��,5.2,��
2020/05/10,16:40,0.697,1.002,0.665,1.224,0.874,0.401,0.700,0.657,��,4.9,��
2020/05/10,16:50,0.698,1.002,0.665,1.225,0.876,0.401,0.698,0.655,��,6.5,��
2020/05/10,17:00,0.700,1.004,0.663,1.224,0.875,0.401,0.698,0.655,��,6.4,��
2020/05/10,17:10,0.700,1.003,0.664,1.224,0.876,0.400,0.698,0.655,��,6.3,��
2020/05/10,17:20,0.700,1.004,0.665,1.224,0.875,0.402,0.700,0.654,��,6.1,��
2020/05/10,17:30,0.699,1.001,0.664,1.223,0.874,0.400,0.698,0.656,��,6.2,��
2020/05/10,17:40,0.699,1.001,0.665,1.226,0.875,0.402,0.698,0.658,��쐼,6.3,��
2020/05/10,17:50,0.698,0.999,0.665,1.226,0.873,0.403,0.699,0.655,��쐼,7.2,��
2020/05/10,18:00,0.701,1.001,0.664,1.231,0.877,0.403,0.701,0.656,��쐼,7.2,��
2020/05/10,18:10,0.699,1.002,0.666,1.227,0.874,0.402,0.699,0.657,��쐼,7.1,��
2020/05/10,18:20,0.700,1.004,0.664,1.227,0.875,0.401,0.699,0.656,��쐼,5.5,��
2020/05/10,18:30,0.700,1.003,0.664,1.230,0.876,0.403,0.699,0.657,��쐼,6.2,��
2020/05/10,18:40,0.699,1.003,0.667,1.229,0.874,0.404,0.699,0.657,��쐼,4.5,��
2020/05/10,18:50,0.699,1.003,0.666,1.227,0.875,0.401,0.696,0.656,��쐼,4.5,��
2020/05/10,19:00,0.700,1.003,0.665,1.228,0.876,0.401,0.699,0.656,��쐼,4.4,��
2020/05/10,19:10,0.701,1.003,0.665,1.231,0.874,0.401,0.697,0.657,��쐼,4.4,��
2020/05/10,19:20,0.701,1.004,0.665,1.230,0.876,0.401,0.698,0.656,��,3.9,��
2020/05/10,19:30,0.700,1.003,0.669,1.230,0.876,0.402,0.698,0.656,��,3.8,��
2020/05/10,19:40,0.703,1.005,0.668,1.229,0.877,0.401,0.698,0.657,��,4.1,��
2020/05/10,19:50,0.701,1.005,0.668,1.229,0.875,0.404,0.698,0.658,��쐼,4.2,��
2020/05/10,20:00,0.700,1.005,0.667,1.230,0.878,0.403,0.700,0.659,�쐼,4.1,��
2020/05/10,20:10,0.702,1.007,0.669,1.230,0.876,0.404,0.698,0.658,���쐼,3.1,��
2020/05/10,20:20,0.701,1.006,0.669,1.229,0.876,0.403,0.700,0.658,���쐼,3.4,��
2020/05/10,20:30,0.702,1.005,0.668,1.229,0.877,0.402,0.699,0.659,�쐼,2.5,��
2020/05/10,20:40,0.700,1.005,0.667,1.230,0.878,0.403,0.699,0.659,�쐼,3.3,��
2020/05/10,20:50,0.704,1.005,0.670,1.231,0.879,0.403,0.700,0.660,�쐼,2.3,��
2020/05/10,21:00,0.701,1.004,0.669,1.230,0.879,0.402,0.698,0.658,���쐼,1.5,��
2020/05/10,21:10,0.701,1.007,0.668,1.230,0.877,0.403,0.698,0.659,�k��,1.5,��
2020/05/10,21:20,0.703,1.004,0.668,1.229,0.879,0.402,0.699,0.658,�k��,2.6,��
2020/05/10,21:30,0.702,1.006,0.669,1.230,0.878,0.403,0.699,0.659,�k�k��,0.6,��
2020/05/10,21:40,0.704,1.007,0.668,1.230,0.880,0.403,0.699,0.660,-,CALM,��
2020/05/10,21:50,0.702,1.005,0.670,1.231,0.878,0.403,0.698,0.659,��,1.1,��
2020/05/10,22:00,0.701,1.005,0.669,1.230,0.879,0.402,0.699,0.658,���쐼,4.2,��
2020/05/10,22:10,0.702,1.005,0.668,1.230,0.878,0.403,0.700,0.660,���쐼,6.4,��
2020/05/10,22:20,0.703,1.004,0.668,1.232,0.880,0.403,0.701,0.657,��,5.4,��
2020/05/10,22:30,0.705,1.005,0.669,1.231,0.879,0.404,0.699,0.659,��,1.9,��
2020/05/10,22:40,0.703,1.005,0.669,1.233,0.879,0.403,0.699,0.661,���k��,3.2,��
2020/05/10,22:50,0.704,1.001,0.670,1.233,0.880,0.404,0.699,0.658,���k��,4.3,��
2020/05/10,23:00,0.705,1.005,0.670,1.231,0.880,0.403,0.697,0.659,���k��,4.1,��
2020/05/10,23:10,0.705,1.004,0.668,1.232,0.879,0.401,0.700,0.658,��,5.1,��
2020/05/10,23:20,0.702,1.004,0.669,1.232,0.877,0.400,0.700,0.657,���k��,3.5,��
2020/05/10,23:30,0.700,1.003,0.669,1.232,0.880,0.401,0.699,0.658,�k��,3.1,��
2020/05/10,23:40,0.701,1.003,0.669,1.230,0.875,0.402,0.700,0.658,�k��,2.0,��
2020/05/10,23:50,0.702,1.004,0.670,1.231,0.876,0.401,0.698,0.658,�k�k��,2.0,��
